Terminal Aerodrome Forecast
Issued by NWS

Home | Current Version | Previous Version | Text Only | Print | Product List | Glossary Off
Versions: 1 2 3 4 5 6 7 8 9 10 11 12 13 14 15 16 17 18 19 20 21

640
FTUS43 KOAX 250716 AAA
TAFCDR
TAF AMD
KCDR 250716Z 2507/2606 09008KT 3SM -RA OVC025
     FM250900 05012KT P6SM VCSH SCT007 BKN015 OVC035
     FM251300 03013G21KT 3SM -RA OVC008=

USA.gov is the U.S. government's official web portal to all federal, state and local government web resources and services.